Location: Newark
(34.1333°N, 7.9667°W)
Time: 06:18:53
(UTC+00:00)

SO-50 - Visible Passes

Search period start: 07 June 2023 00:00
Search period end: 17 June 2023 00:00
Orbit: 589 x 687 km, 64.6° (Epoch: 06 June)

Date Brightness Start Highest point End Pass type
(mag) Time Alt. Az. Time Alt. Az. Time Alt. Az.
07 Jun ? 03:36:57 13° SSE 03:40:25 29° ESE 03:44:37 10° NE visible
08 Jun ? 04:00:03 19° SSW 04:03:34 75° ESE 04:08:27 10° NNE visible
09 Jun ? 02:45:32 16° SE 02:46:56 18° ESE 02:50:12 10° ENE visible
09 Jun ? 04:23:04 14° SW 04:26:55 44° WNW 04:31:35 10° NNE visible
10 Jun ? 03:08:29 34° SSE 03:09:58 44° ESE 03:14:37 10° NE visible
10 Jun ? 04:46:54 10° W 04:50:31 20° NW 04:54:07 10° N visible
11 Jun ? 01:53:51 10° ESE 01:53:51 10° ESE 01:54:12 10° E visible
11 Jun ? 03:31:22 38° SW 03:33:12 73° WNW 03:38:05 10° NNE visible
12 Jun ? 02:16:41 27° ESE 02:16:41 27° ESE 02:20:31 10° NE visible
12 Jun ? 03:54:12 20° W 03:56:39 31° NW 04:00:59 10° N visible
13 Jun ? 02:39:27 68° SE 02:39:33 68° ESE 02:44:24 10° NE visible
13 Jun ? 04:17:41 10° W 04:20:21 15° NW 04:23:03 10° NNW visible
14 Jun ? 01:24:39 14° E 01:24:39 14° E 01:25:56 10° ENE visible
14 Jun ? 03:02:09 45° W 03:02:52 49° WNW 03:07:36 10° NNE visible
15 Jun ? 01:47:18 33° ENE 01:47:18 33° ENE 01:50:31 10° NE visible
15 Jun ? 03:24:49 19° WNW 03:26:25 22° NW 03:30:12 10° N visible
16 Jun ? 02:09:54 62° N 02:09:54 62° N 02:14:02 10° NNE visible
16 Jun ? 03:49:34 10° NW 03:50:13 10° NW 03:50:54 10° NW visible
